Weather History for Duncan, OK

Change the Weather History Date:

Wednesday, February 19, 2014

  Actual Average (KLAW) Record (KLAW)
Temperature  
Mean Temperature 59 °F -  
Max Temperature 68 °F 57 °F 80 °F (1986)
Min Temperature 50 °F 33 °F 10 °F (1978)
Degree Days  
Heating Degree Days 6    
Growing Degree Days 9 (Base 50)    
Moisture  
Dew Point 49 °F    
Average Humidity 71    
Maximum Humidity 100    
Minimum Humidity 41    
Precipitation  
Precipitation 0.00 in - - ()
Sea Level Pressure  
Sea Level Pressure 29.77 in    
Wind  
Wind Speed 10 mph (SE)    
Max Wind Speed 21 mph    
Max Gust Speed 28 mph    
Visibility 10 miles    
Events      
Averages and records for this station are not official NWS values.
T = Trace of Precipitation, MM = Missing Value Source: NWS Daily Summary

Daily Weather History Graph

Daily Weather History Graph

Search for Another Location

Airport:

Trip Planner

Search our weather history database for the weather conditions in past years. The results will help you decide how hot, cold, wet, or windy it might be!

Date:

Astronomy

Feb. 19, 2014 Rise Set
Actual Time 7:12 AM CST 6:19 PM CST
Civil Twilight 6:47 AM CST 6:44 PM CST
Nautical Twilight 6:17 AM CST 7:13 PM CST
Astronomical Twilight 5:48 AM CST 7:43 PM CST
Moon 10:59 PM CST (2/19) 9:32 AM CST (2/19)
Length of Visible Light 11h 57m
Length of Day
11h 06m
Waning Gibbous, 79% of the Moon is Illuminated
Feb 19
Waning Gibbous
Feb 22
Last Quarter
Mar 1
New
Mar 8
First Quarter
Mar 16
Full

Hourly Weather History & Observations

Time (CST) Temp. Dew Point Humidity Pressure Visibility Wind Dir Wind Speed Gust Speed Precip Events Conditions
12:15 AM 57.2 °F 42.8 °F 59% 29.89 in 10.0 mi Calm Calm - N/A   Clear
12:35 AM 55.4 °F 42.8 °F 63% 29.90 in 10.0 mi Calm Calm - N/A   Clear
12:55 AM 55.4 °F 42.8 °F 63% 29.91 in 10.0 mi Calm Calm - N/A   Clear
1:15 AM 55.4 °F 41.0 °F 58% 29.91 in 10.0 mi Calm Calm - N/A   Clear
1:35 AM 59.0 °F 41.0 °F 51% 29.91 in 10.0 mi Calm Calm - N/A   Clear
1:55 AM 59.0 °F 39.2 °F 48% 29.91 in 10.0 mi NE 6.9 mph - N/A   Clear
2:15 AM 55.4 °F 37.4 °F 51% 29.92 in 10.0 mi NE 11.5 mph - N/A   Clear
2:35 AM 55.4 °F 37.4 °F 51% 29.92 in 10.0 mi NE 15.0 mph - N/A   Clear
2:55 AM 55.4 °F 33.8 °F 44% 29.92 in 10.0 mi NE 15.0 mph 24.2 mph N/A   Clear
3:15 AM 55.4 °F 33.8 °F 44% 29.91 in 10.0 mi NE 15.0 mph 20.7 mph N/A   Clear
3:35 AM 53.6 °F 33.8 °F 47% 29.89 in 10.0 mi NE 15.0 mph 21.9 mph N/A   Clear
3:55 AM 53.6 °F 32.0 °F 44% 29.89 in 10.0 mi ENE 16.1 mph 19.6 mph N/A   Clear
4:15 AM 55.4 °F 32.0 °F 41% 29.88 in 10.0 mi ENE 19.6 mph 27.6 mph N/A   Clear
4:35 AM 55.4 °F 32.0 °F 41% 29.89 in 10.0 mi ENE 17.3 mph 25.3 mph N/A   Clear
4:55 AM 53.6 °F 32.0 °F 44% 29.89 in 10.0 mi ENE 16.1 mph 20.7 mph N/A   Clear
5:15 AM 53.6 °F 32.0 °F 44% 29.90 in 10.0 mi ENE 12.7 mph 20.7 mph N/A   Clear
5:35 AM 53.6 °F 32.0 °F 44% 29.89 in 10.0 mi ENE 12.7 mph 17.3 mph N/A   Clear
5:55 AM 53.6 °F 32.0 °F 44% 29.89 in 10.0 mi ENE 11.5 mph 19.6 mph N/A   Clear
6:15 AM 53.6 °F 32.0 °F 44% 29.89 in 10.0 mi East 12.7 mph 19.6 mph N/A   Clear
6:35 AM 51.8 °F 32.0 °F 47% 29.88 in 10.0 mi East 17.3 mph 20.7 mph N/A   Clear
6:55 AM 51.8 °F 32.0 °F 47% 29.88 in 10.0 mi East 12.7 mph 18.4 mph N/A   Clear
7:15 AM 51.8 °F 32.0 °F 47% 29.89 in 10.0 mi East 12.7 mph - N/A   Clear
7:35 AM 50.0 °F 32.0 °F 50% 29.89 in 10.0 mi Calm Calm - N/A   Clear
7:55 AM 51.8 °F 32.0 °F 47% 29.89 in 10.0 mi Calm Calm - N/A   Mostly Cloudy
8:15 AM 51.8 °F 32.0 °F 47% 29.89 in 10.0 mi East 9.2 mph - N/A   Overcast
8:35 AM 53.6 °F 32.0 °F 44% 29.88 in 10.0 mi East 11.5 mph - N/A   Overcast
8:55 AM 53.6 °F 32.0 °F 44% 29.87 in 10.0 mi East 13.8 mph - N/A   Overcast
9:15 AM 53.6 °F 32.0 °F 44% 29.86 in 10.0 mi East 12.7 mph - N/A   Overcast
9:35 AM 55.4 °F 32.0 °F 41% 29.86 in 10.0 mi East 13.8 mph - N/A   Overcast
9:55 AM 55.4 °F 33.8 °F 44% 29.85 in 10.0 mi ESE 11.5 mph - N/A   Overcast
10:15 AM 55.4 °F 37.4 °F 51% 29.85 in 10.0 mi ESE 11.5 mph - N/A   Overcast
10:35 AM 59.0 °F 42.8 °F 55% 29.84 in 10.0 mi ESE 11.5 mph - N/A   Overcast
10:55 AM 59.0 °F 51.8 °F 77% 29.84 in 10.0 mi SE 10.4 mph - N/A   Overcast
11:15 AM 59.0 °F 53.6 °F 82% 29.83 in 10.0 mi SE 11.5 mph - N/A   Overcast
11:35 AM 60.8 °F 55.4 °F 82% 29.82 in 10.0 mi SE 13.8 mph - N/A   Overcast
11:55 AM 60.8 °F 55.4 °F 82% 29.82 in 10.0 mi SSE 3.5 mph - N/A   Overcast
12:15 PM 60.8 °F 59.0 °F 94% 29.80 in 10.0 mi South 13.8 mph - N/A   Overcast
12:35 PM 60.8 °F 59.0 °F 94% 29.78 in 10.0 mi SSE 11.5 mph 19.6 mph N/A   Overcast
12:55 PM 62.6 °F 60.8 °F 94% 29.76 in 10.0 mi South 12.7 mph - N/A   Overcast
1:15 PM 62.6 °F 60.8 °F 94% 29.75 in 10.0 mi SSE 10.4 mph - N/A   Overcast
1:35 PM 62.6 °F 60.8 °F 94% 29.73 in 10.0 mi SSE 11.5 mph - N/A   Overcast
1:55 PM 62.6 °F 60.8 °F 94% 29.72 in 10.0 mi SSE 5.8 mph - N/A   Overcast
2:15 PM 64.4 °F 60.8 °F 88% 29.70 in 10.0 mi SSE 12.7 mph - N/A   Mostly Cloudy
2:35 PM 66.2 °F 62.6 °F 88% 29.70 in 10.0 mi SSE 15.0 mph 21.9 mph N/A   Mostly Cloudy
2:55 PM 68.0 °F 62.6 °F 83% 29.69 in 10.0 mi South 15.0 mph 24.2 mph N/A   Mostly Cloudy
3:15 PM 68.0 °F 62.6 °F 83% 29.68 in 10.0 mi South 17.3 mph 20.7 mph N/A   Mostly Cloudy
3:35 PM 68.0 °F 62.6 °F 83% 29.68 in 10.0 mi South 17.3 mph - N/A   Scattered Clouds
3:55 PM 68.0 °F 62.6 °F 83% 29.67 in 10.0 mi South 15.0 mph 24.2 mph N/A   Scattered Clouds
4:15 PM 68.0 °F 62.6 °F 83% 29.66 in 10.0 mi South 20.7 mph 26.5 mph N/A   Scattered Clouds
4:35 PM 68.0 °F 60.8 °F 78% 29.65 in 10.0 mi South 18.4 mph 25.3 mph N/A   Scattered Clouds
4:55 PM 68.0 °F 60.8 °F 78% 29.65 in 10.0 mi SSE 20.7 mph 24.2 mph N/A   Scattered Clouds
5:15 PM 66.2 °F 60.8 °F 83% 29.65 in 10.0 mi SSE 19.6 mph 25.3 mph N/A   Scattered Clouds
5:35 PM 64.4 °F 60.8 °F 88% 29.64 in 10.0 mi South 16.1 mph - N/A   Scattered Clouds
5:55 PM 64.4 °F 60.8 °F 88% 29.64 in 10.0 mi SSE 17.3 mph 23.0 mph N/A   Scattered Clouds
6:15 PM 62.6 °F 60.8 °F 94% 29.63 in 10.0 mi SSE 16.1 mph 21.9 mph N/A   Clear
6:35 PM 62.6 °F 60.8 °F 94% 29.63 in 10.0 mi SSE 13.8 mph 18.4 mph N/A   Clear
6:55 PM 62.6 °F 60.8 °F 94% 29.64 in 10.0 mi SSE 13.8 mph - N/A   Scattered Clouds
7:15 PM 62.6 °F 60.8 °F 94% 29.63 in 10.0 mi SSE 13.8 mph - N/A   Scattered Clouds
7:35 PM 62.6 °F 60.8 °F 94% 29.63 in 10.0 mi SSE 12.7 mph - N/A   Clear
7:55 PM 62.6 °F 60.8 °F 94% 29.63 in 10.0 mi SSE 10.4 mph - N/A   Scattered Clouds
8:15 PM 62.6 °F 60.8 °F 94% 29.62 in 10.0 mi SSE 11.5 mph - N/A   Mostly Cloudy
8:35 PM 62.6 °F 60.8 °F 94% 29.60 in 10.0 mi SSE 13.8 mph 17.3 mph N/A   Mostly Cloudy
8:55 PM 62.6 °F 60.8 °F 94% 29.60 in 10.0 mi SSE 13.8 mph - N/A   Clear
9:15 PM 62.6 °F 60.8 °F 94% 29.60 in 10.0 mi SSE 13.8 mph - N/A   Clear
9:35 PM 62.6 °F 60.8 °F 94% 29.58 in 10.0 mi SSE 15.0 mph - N/A   Clear
9:55 PM 60.8 °F 60.8 °F 100% 29.58 in 10.0 mi South 13.8 mph 19.6 mph N/A   Clear
10:35 PM 60.8 °F 60.8 °F 100% 29.56 in 10.0 mi South 12.7 mph - N/A   Clear
10:55 PM 60.8 °F 60.8 °F 100% 29.55 in 10.0 mi South 11.5 mph - N/A   Clear
11:15 PM 60.8 °F 60.8 °F 100% 29.55 in 10.0 mi South 11.5 mph - N/A   Clear
11:35 PM 60.8 °F 60.8 °F 100% 29.54 in 10.0 mi South 8.1 mph - N/A   Clear
11:55 PM 62.6 °F 60.8 °F 94% 29.54 in 10.0 mi South 11.5 mph - N/A   Clear